Location: McFarlands Corners
(41.4117°N, 81.3382°W)
Time: 08:59:54
(UTC+00:00)

BlueWalker 3 - Pass Details

Date: 20 January 2026
Orbit: 450 x 461 km, 53.2° (Epoch: 11 February)

Event Time Altitude Azimuth Distance (km) Brightness Sun altitude
Rises 00:45:06 0° 232° (SW) 2,444 6.3 -25.9°
Reaches altitude 10° 00:47:13 10° 234° (SW) 1,575 5.2 -26.3°
Enters shadow 00:49:00 28° 236° (WSW) 881 3.6 -26.6°
